Location: *
(43.9900°N, 3.4811°E)
Time: 08:59:04
(UTC+00:00)

Meteor 2-15 - Pass Details

Date: 25 August 2019
Orbit: 937 x 955 km, 82.5° (Epoch: 24 September)

Event Time Altitude Azimuth Distance (km) Brightness Sun altitude
Exits shadow 21:40:26 81° 168° (SSE) 964 4.3 -28.2°
Maximum altitude 21:40:46 87° 99° (E) 955 4.3 -28.2°
Drops below altitude 10° 21:46:56 10° 9° (N) 2,685 7.3 -28.9°
Sets 21:49:26 0° 10° (N) 3,637 8.1 -29.1°
